GFSCGP_850_rhum_003.txt.gz
RH
76 91 94 80 78 67 81 86 81 66 60 68 64 61 53 50 54 52 50 49 47 42 41 40 38 38 36 34 31 31 30 31 35 56 83 95 87 97 100 100 100 96 88 74
84 90 73 70 74 77 78 82 78 58 63 63 63 63 50 46 46 46 45 49 50 43 40 38 35 35 37 35 33 34 35 34 40 52 66 81 86 99 100 100 100 96 70 25
89 73 67 73 82 78 71 76 65 66 64 60 62 56 38 30 32 38 43 42 42 42 35 34 34 36 35 35 34 39 37 43 54 52 71 84 96 100 100 100 94 61 32 34
75 66 76 88 89 81 84 73 75 78 84 83 60 71 39 38 36 34 38 38 39 42 37 30 32 31 38 34 37 44 47 53 57 62 77 74 83 91 92 86 73 53 35 41
77 84 94 84 80 76 74 69 75 80 88 92 72 84 54 46 45 40 36 34 37 38 37 32 28 28 35 35 38 45 52 58 68 93 90 80 88 89 79 77 76 33 38 46
73 70 70 73 68 67 64 74 71 74 78 92 66 73 55 38 35 36 37 34 34 33 34 33 36 34 35 40 46 51 50 59 97 100 85 90 86 88 82 78 41 36 41 49
76 77 76 72 77 73 70 98 94 95 96 81 59 75 52 37 33 33 30 34 32 30 35 31 38 40 36 40 45 51 54 63 96 98 86 98 87 89 85 72 36 36 40 47
96 87 75 76 70 80 82 80 91 88 83 72 64 77 56 42 34 32 29 26 27 26 22 30 37 40 37 40 46 50 57 72 97 94 100 91 92 90 82 54 36 39 42 46
97 90 77 81 72 63 99 97 68 95 87 93 68 58 41 37 34 36 35 28 24 20 21 22 27 43 41 44 49 53 67 83 87 99 89 94 94 92 69 37 38 38 40 45
78 93 77 79 73 72 81 78 96 97 95 90 64 61 58 37 25 30 40 40 38 36 26 21 30 39 50 52 58 73 79 85 94 97 100 100 98 75 42 38 38 38 40 46
81 96 88 90 91 80 93 98 100 98 96 87 69 45 41 34 35 44 47 43 45 42 36 26 27 46 58 66 71 83 96 95 94 100 99 88 64 40 39 42 40 39 44 47
78 90 98 83 70 65 64 72 72 90 88 88 83 60 31 33 56 50 48 49 45 44 45 42 40 48 70 81 87 98 99 94 97 92 77 57 40 42 46 45 41 43 47 49
85 99 97 88 87 77 97 80 71 69 77 86 84 58 28 32 54 51 55 56 56 65 64 66 65 68 79 88 95 100 95 94 90 72 54 45 46 48 47 44 44 47 49 53
72 94 94 77 78 98 99 82 85 96 94 74 72 60 44 39 46 50 47 58 62 82 79 80 78 80 88 93 99 100 93 91 78 60 53 53 50 47 45 45 47 49 53 57
84 98 97 93 79 94 100 95 86 98 81 79 57 57 45 41 50 53 61 64 72 87 84 85 84 87 90 92 93 94 89 78 67 59 56 52 48 45 46 48 50 53 56 56
86 99 100 97 94 97 99 98 92 84 78 74 66 66 44 41 48 78 78 70 79 87 85 82 83 82 79 78 76 75 70 65 61 56 51 46 45 46 48 50 53 56 56 53
98 99 100 91 90 100 97 93 94 88 78 76 84 60 47 50 66 81 70 69 75 86 84 80 80 76 73 68 65 63 59 54 50 47 45 45 46 48 50 53 56 56 54 54
98 100 100 97 98 98 94 74 70 75 62 68 62 54 56 59 71 77 74 70 67 82 82 76 70 64 58 55 54 53 50 48 45 45 45 46 48 50 53 56 57 58 59 53
83 98 100 100 100 88 63 72 78 79 77 59 69 63 52 57 65 59 71 70 69 72 76 72 65 60 58 56 53 51 49 48 47 46 47 48 51 54 57 60 63 63 54 41
87 88 100 100 98 94 52 82 65 69 73 61 57 59 59 67 79 75 70 73 67 69 68 68 67 62 59 56 55 55 52 49 47 48 50 52 56 59 64 68 64 56 43 17
98 98 99 97 96 80 62 65 72 77 67 64 64 56 70 74 74 63 77 74 70 69 70 71 67 63 61 60 59 57 53 50 51 52 54 58 62 69 70 65 57 38 18 27
87 97 96 92 94 76 60 75 80 60 56 61 68 65 72 71 67 71 79 75 76 75 77 73 69 66 64 62 60 58 56 55 55 57 62 68 73 71 65 55 32 24 36 36
93 75 78 81 71 56 56 60 52 59 62 62 62 71 66 64 71 77 80 77 76 74 76 75 69 67 62 60 62 62 60 58 60 67 73 74 70 63 49 28 34 42 34 19
76 76 83 72 60 66 60 54 57 58 62 62 58 68 62 59 72 75 77 77 76 78 76 72 69 66 63 63 63 64 63 65 72 76 75 68 61 42 29 42 46 33 17 12
80 77 75 78 70 62 55 55 55 59 63 58 60 59 57 58 68 68 74 75 76 74 71 69 68 66 66 65 65 67 70 76 78 74 67 57 35 32 47 49 35 18 13 16
82 76 79 78 62 61 58 57 57 57 61 56 54 62 63 59 66 71 73 72 70 69 68 68 67 66 64 65 69 75 80 78 72 65 50 30 36 51 52 38 19 13 15 19

GFSCGP_850_rhum_006.txt.gz
RH
68 73 76 53 51 43 47 51 50 42 41 50 44 42 36 34 35 36 37 36 35 36 40 43 43 44 42 37 34 32 32 33 37 57 56 75 87 88 89 96 98 100 93 86
71 81 50 50 51 57 54 54 50 41 39 46 42 42 35 32 32 32 32 32 32 34 35 38 42 41 44 37 36 34 33 33 39 45 56 57 73 89 94 98 100 100 93 75
62 57 55 59 61 65 58 59 54 53 43 42 49 46 27 22 22 24 28 29 28 28 31 34 34 36 43 43 35 36 35 35 44 54 76 76 75 88 100 100 100 98 68 46
62 49 62 63 64 57 62 45 51 59 61 63 45 53 29 24 23 23 25 27 28 29 30 31 33 32 36 40 36 37 36 40 47 61 67 65 58 80 99 100 98 89 55 35
60 70 73 76 65 57 58 52 53 54 60 62 53 84 36 30 30 27 23 22 22 24 27 32 33 33 34 34 31 38 39 48 47 56 70 85 80 89 90 99 98 74 40 42
55 59 55 54 55 56 52 58 58 57 62 87 52 50 41 27 24 21 21 22 20 26 30 34 42 40 39 47 35 40 48 55 55 65 88 97 83 77 85 97 86 50 42 44
65 64 57 56 62 58 59 71 73 82 90 63 29 41 40 25 24 22 20 17 20 24 28 32 38 42 48 51 37 45 56 52 60 85 98 95 87 85 87 81 70 62 40 45
78 69 62 60 62 56 66 61 64 58 43 40 32 53 34 21 22 24 23 23 21 25 26 23 32 42 56 60 41 51 62 59 68 100 100 99 96 94 84 77 71 50 39 44
86 80 59 59 54 56 71 91 55 75 68 89 46 42 28 24 28 24 22 20 31 34 36 34 29 40 63 71 51 61 73 75 83 100 99 100 100 91 83 79 57 38 41 44
62 83 55 56 64 62 66 57 87 95 82 69 43 46 35 24 22 18 19 26 32 36 41 41 36 44 66 76 70 88 87 83 90 99 98 100 94 90 84 76 48 39 41 41
58 66 72 76 82 62 82 91 95 77 74 67 54 32 20 25 29 36 33 32 38 45 48 50 40 58 76 86 89 88 86 82 83 100 100 99 95 87 79 56 38 39 38 40
59 72 88 71 44 45 45 57 62 94 88 88 62 50 20 23 21 31 32 36 41 52 60 60 51 74 87 88 90 87 83 86 98 100 100 99 100 83 60 40 38 37 38 42
62 97 87 69 70 60 73 59 59 92 92 88 80 47 25 27 25 25 26 32 41 58 63 74 77 83 88 89 90 86 89 95 100 100 98 86 79 61 40 39 40 39 41 44
60 68 87 66 68 61 100 73 87 97 93 65 64 52 36 32 30 28 30 41 56 55 72 78 78 82 88 91 92 97 94 100 100 94 84 75 51 40 42 44 41 41 44 48
65 100 91 76 69 78 92 91 95 99 76 79 53 45 36 32 32 34 38 44 59 61 75 80 80 83 88 89 99 99 100 100 95 76 63 46 44 47 46 42 42 44 48 52
70 92 99 97 79 77 96 94 96 96 84 64 57 57 41 38 38 45 65 75 64 66 78 80 79 80 83 98 100 100 100 92 74 59 49 49 49 45 43 43 45 49 52 54
88 100 100 89 64 70 97 96 95 95 83 67 73 54 39 44 55 74 79 66 67 68 80 80 77 77 88 97 98 97 90 76 59 55 53 50 46 44 44 46 50 52 54 55
86 100 100 98 86 94 73 77 80 84 82 66 57 51 49 67 81 82 68 72 72 76 83 78 73 78 85 88 86 79 68 60 56 52 48 45 44 45 47 50 53 56 58 61
68 84 100 99 98 65 55 63 82 76 62 51 59 51 52 66 74 62 74 86 80 83 83 79 76 76 76 75 71 65 59 52 48 46 44 44 46 48 51 55 58 62 61 50
76 80 98 98 96 79 53 55 62 60 66 51 55 51 55 68 84 65 81 88 87 85 78 79 71 66 63 60 57 53 48 45 44 44 46 47 49 53 58 62 66 59 48 26
92 98 97 97 94 63 51 55 73 62 61 55 60 52 51 59 61 75 81 83 85 82 80 68 60 56 54 52 49 46 44 45 46 47 49 52 55 60 66 65 58 43 25 34
66 81 88 77 77 77 52 62 56 50 56 60 65 72 72 69 70 78 79 84 82 79 77 68 62 57 53 49 48 49 48 48 49 51 54 59 64 68 64 55 34 30 40 34
74 60 58 60 52 46 53 53 56 62 62 63 68 70 76 74 82 83 80 81 87 86 81 70 63 58 54 51 53 54 51 52 54 58 63 69 68 62 49 30 40 43 32 17
63 62 67 65 50 53 52 57 60 61 71 67 68 72 70 67 76 78 81 81 81 79 74 68 63 60 56 53 54 58 56 57 62 68 71 66 58 42 31 44 45 32 16 12
60 67 64 63 52 52 56 60 60 59 64 68 77 68 65 69 76 76 78 78 78 76 70 65 63 60 58 58 60 60 62 67 71 72 65 57 35 35 48 47 34 17 12 16
61 56 55 49 53 52 53 63 61 60 66 69 63 68 70 69 73 72 75 76 74 70 66 64 63 63 61 62 64 67 70 73 72 64 52 30 39 50 49 36 17 12 16 19

GFSCGP_850_rhum_009.txt.gz
RH
60 68 67 45 42 40 38 39 35 28 25 34 35 32 26 23 24 26 27 28 28 28 27 30 35 32 30 32 37 38 38 50 64 84 88 98 98 100 99 93 80 84 90 91
73 80 47 39 40 43 44 45 41 32 29 34 36 36 28 25 24 23 24 26 26 26 26 27 30 36 37 37 40 41 45 54 70 75 58 96 99 99 99 92 88 90 97 93
61 48 45 45 50 51 45 47 43 41 35 35 39 40 28 21 21 21 22 23 24 25 24 24 27 29 36 37 38 40 50 64 73 47 57 100 99 99 96 91 95 99 100 90
55 40 50 48 53 45 52 35 38 45 51 52 38 49 26 17 18 18 18 20 21 22 23 24 24 26 29 36 40 43 56 75 63 46 65 85 56 88 91 87 95 98 97 70
55 55 55 60 50 43 50 47 47 48 54 56 45 55 33 18 18 14 14 20 20 21 20 20 23 26 27 30 36 46 60 82 95 51 68 99 93 98 94 94 99 97 89 66
44 46 47 47 44 45 46 51 53 52 64 80 46 38 31 20 14 15 14 16 17 17 18 23 25 26 29 30 35 44 66 79 92 56 93 93 91 85 87 99 99 98 80 50
59 54 48 45 55 50 53 66 68 78 91 64 24 30 26 17 15 14 16 17 18 17 18 21 24 29 39 35 35 52 85 88 90 78 83 99 96 80 82 82 98 96 78 49
76 74 56 54 55 53 62 58 58 53 40 34 26 35 25 17 15 17 17 18 19 19 18 28 31 23 34 41 41 69 93 91 88 80 92 99 96 88 88 81 94 93 66 48
69 70 46 47 46 47 58 77 48 69 53 65 40 29 22 18 18 17 18 20 19 18 29 33 36 32 27 41 50 73 89 93 92 92 100 97 95 91 86 91 91 70 48 48
54 74 48 46 52 49 54 46 83 91 79 56 34 29 28 21 19 16 16 18 18 23 29 36 42 39 31 45 62 78 84 90 99 100 98 98 98 93 93 93 70 53 55 42
48 55 68 65 69 52 66 75 90 62 70 74 66 40 20 21 23 26 30 27 30 33 35 45 50 43 40 56 69 78 83 90 100 97 98 99 97 98 91 71 60 61 45 42
48 62 80 64 42 39 44 58 58 90 69 80 68 58 25 21 21 19 24 26 27 25 36 50 57 43 53 69 76 79 83 91 88 95 100 100 99 95 74 65 59 47 40 40
52 78 82 77 57 44 54 48 47 62 81 92 88 54 21 24 24 24 22 22 24 33 45 57 61 56 67 74 79 80 82 84 86 99 100 100 95 83 69 58 50 40 38 38
49 61 83 62 69 52 88 72 65 86 96 69 62 52 38 31 29 26 26 26 30 34 53 61 66 67 73 77 80 84 89 90 98 100 100 99 87 68 55 47 40 38 38 40
56 100 80 66 58 64 70 72 72 98 94 96 61 48 40 35 34 33 32 30 42 50 58 66 69 67 74 81 84 86 89 95 100 100 100 92 65 58 42 39 39 40 41 44
64 88 94 92 68 66 80 66 80 91 91 96 94 84 48 38 35 40 52 52 64 63 63 71 72 72 80 81 82 85 89 92 94 79 59 60 51 41 40 41 41 41 45 50
76 97 97 80 54 61 88 84 95 95 84 89 94 74 47 41 47 66 72 76 74 65 63 74 73 77 75 84 90 90 96 93 85 81 60 44 42 43 43 42 43 46 51 54
81 95 95 99 84 92 54 57 67 81 69 59 59 60 54 48 61 77 84 80 69 64 72 73 74 74 77 92 94 89 86 78 75 64 48 47 46 50 54 45 48 52 55 61
62 75 95 98 79 56 59 50 75 91 71 52 68 60 51 58 79 84 78 80 70 76 73 70 66 71 86 96 91 86 68 65 57 51 48 59 60 45 46 49 53 58 66 63
66 69 93 81 94 82 48 48 60 71 67 50 60 71 54 57 94 80 87 84 82 77 69 61 62 71 82 75 92 92 85 72 68 60 48 44 45 48 51 56 62 67 59 45
94 96 94 91 98 62 39 46 64 67 59 51 65 66 65 68 68 77 87 93 89 81 78 73 78 78 65 64 68 63 53 49 46 44 45 47 50 54 60 68 65 54 35 32
68 80 82 82 92 78 42 47 59 52 50 52 61 74 61 70 78 83 85 80 72 63 56 53 53 50 47 48 51 48 46 45 45 47 49 53 57 65 69 61 48 31 39 35
63 47 52 52 50 38 44 47 49 55 56 55 61 85 68 79 83 88 86 88 76 66 57 57 53 50 48 47 47 46 46 47 49 52 56 62 68 66 57 39 36 41 35 22
50 45 57 58 41 42 43 46 55 63 63 65 70 71 70 76 77 78 83 76 78 68 60 56 52 49 48 49 49 52 50 53 56 60 67 69 64 52 32 41 43 35 21 13
55 58 55 53 45 42 49 55 61 65 68 76 73 68 68 67 72 74 73 71 70 65 60 57 55 53 52 52 53 54 56 59 64 70 68 60 42 32 44 45 36 18 13 17
49 51 58 47 45 47 49 61 64 64 68 72 70 71 70 65 70 72 70 70 69 66 63 58 55 56 55 57 58 59 63 69 71 67 57 36 34 46 46 36 19 15 19 19

GFSCGP_850_rhum_012.txt.gz
RH
55 69 76 55 52 47 47 50 48 35 27 34 35 34 31 27 26 24 25 26 27 28 28 27 28 29 29 27 28 32 35 39 62 73 76 84 91 88 93 94 95 95 84 83
69 80 49 41 40 45 48 54 52 39 30 35 40 41 34 30 29 26 25 23 23 25 26 26 27 28 31 31 28 33 35 38 44 70 68 69 88 91 94 99 100 90 84 83
65 52 45 49 48 53 52 54 50 47 41 39 42 46 40 26 28 28 27 25 24 24 24 25 26 26 29 32 35 35 36 39 40 67 77 90 94 97 97 99 99 91 95 91
53 45 44 48 53 48 56 42 43 44 55 67 45 76 42 30 22 23 22 20 21 21 21 23 24 25 26 30 33 37 40 40 47 59 76 62 65 93 99 99 100 100 100 98
62 53 56 59 49 43 49 48 50 51 61 71 58 72 46 29 29 21 18 17 18 19 20 21 22 23 23 25 32 33 38 43 52 65 70 71 85 97 98 100 99 99 100 96
50 43 45 49 43 44 46 51 52 55 64 96 66 55 40 29 25 20 15 14 17 17 19 20 18 22 24 24 23 34 37 44 65 68 77 73 89 99 97 99 98 99 92 88
58 56 49 45 55 50 52 63 93 96 98 88 37 49 37 25 22 19 18 18 15 15 17 18 18 27 29 27 28 25 40 44 67 75 81 100 97 96 86 100 100 96 86 79
87 84 57 50 57 63 66 63 89 76 82 68 43 65 37 19 17 16 16 17 17 18 18 19 29 32 35 35 29 33 36 53 73 85 85 100 99 89 94 100 100 96 87 83
79 71 48 51 49 52 66 82 56 78 68 89 58 34 26 22 22 21 18 16 18 19 19 21 30 36 39 36 37 38 46 58 81 84 93 100 96 91 92 97 99 92 91 76
55 80 50 51 48 50 57 47 84 92 97 80 50 41 40 28 27 26 25 24 25 26 29 32 34 42 41 39 35 41 53 56 85 98 100 98 95 96 95 98 98 95 89 75
46 59 68 64 70 68 69 74 79 74 87 94 80 52 26 31 26 26 29 29 26 29 30 28 34 48 46 40 36 39 61 76 79 96 99 98 96 94 92 99 95 92 80 53
46 61 93 80 52 50 52 65 65 90 81 81 82 68 33 32 28 27 26 23 26 26 28 32 47 50 46 45 45 55 65 87 92 94 98 99 95 93 90 80 85 78 58 50
50 84 93 88 63 48 58 54 53 63 75 90 93 65 27 30 30 29 28 28 24 26 31 51 54 55 56 57 64 70 84 99 90 98 98 97 96 86 74 75 71 54 52 46
47 64 85 90 78 67 97 80 64 72 98 81 76 66 48 40 37 49 54 54 41 36 58 58 61 59 67 65 74 91 100 90 92 98 96 94 79 72 75 65 59 55 45 42
57 97 84 75 64 66 73 73 69 89 94 98 80 80 66 59 55 45 42 53 57 62 63 62 65 64 66 83 94 91 92 89 90 93 85 76 72 77 63 59 60 44 40 39
61 97 98 93 71 70 80 72 70 67 76 96 95 94 67 64 55 52 65 69 71 75 73 65 65 72 87 90 89 88 86 85 89 81 76 77 71 58 59 54 40 38 40 42
83 99 96 90 64 73 87 74 79 79 82 87 97 83 66 61 54 65 74 81 83 83 75 65 68 89 87 84 85 87 87 81 81 76 58 56 60 66 56 42 42 41 45 51
87 98 98 98 90 92 55 55 62 75 74 64 63 65 66 60 68 76 84 82 77 73 66 73 76 80 81 84 80 70 68 79 78 70 76 89 87 65 52 44 45 55 55 55
72 87 98 99 92 64 50 57 67 84 76 60 72 72 57 67 69 82 90 83 78 79 76 74 72 77 78 76 76 75 76 77 90 92 88 85 76 48 52 60 53 52 57 65
78 77 93 86 95 83 58 56 62 71 87 56 73 82 60 65 84 86 96 72 74 70 68 70 74 78 78 71 78 87 91 91 93 90 86 71 58 57 48 51 55 62 68 66
94 95 97 96 97 79 47 50 60 84 72 55 55 77 72 73 76 94 99 76 66 63 65 78 92 92 90 91 97 98 94 93 91 82 77 59 49 50 55 61 68 64 47 31
79 87 93 92 98 94 44 51 65 60 54 51 54 75 73 76 82 81 85 93 91 92 95 94 94 96 98 99 97 86 83 73 61 50 48 50 54 60 65 66 52 35 35 35
68 60 68 71 71 44 44 47 47 53 58 57 57 80 72 87 87 84 79 63 61 61 57 52 52 52 54 55 53 50 45 46 47 50 54 57 62 68 58 43 33 39 34 24
53 46 67 60 48 51 47 49 54 57 60 63 63 78 79 83 84 87 78 68 59 56 54 54 50 49 49 48 48 47 48 49 52 57 62 68 62 50 34 39 40 34 22 14
65 59 64 65 58 48 53 56 58 58 67 74 70 70 69 73 76 79 74 67 58 54 52 51 49 49 49 50 50 51 53 56 62 68 66 57 42 33 40 41 33 20 15 18
58 68 74 74 51 52 58 58 60 61 68 70 67 69 70 69 73 72 71 67 62 56 53 51 51 52 52 53 55 57 61 68 68 62 53 37 34 42 42 34 20 17 19 19

GFSCGP_850_rhum_018.txt.gz
RH
92 89 94 79 75 59 57 63 66 56 44 43 46 46 42 34 33 32 30 27 25 26 28 30 30 30 29 30 30 29 30 32 54 62 59 62 74 80 80 85 86 88 89 87
76 92 70 63 63 66 68 70 72 57 44 43 50 50 41 38 35 34 32 29 26 22 22 24 26 27 29 30 29 28 28 28 34 52 56 58 56 67 70 84 87 88 88 86
81 64 62 64 60 66 64 63 61 60 53 46 55 41 41 39 34 32 31 29 30 29 27 22 23 25 24 27 28 28 29 32 28 35 53 62 61 66 73 79 84 91 87 86
64 49 65 70 65 58 66 52 53 57 61 74 57 79 64 44 38 33 27 28 28 27 27 25 22 22 22 22 22 24 27 27 34 35 42 56 61 62 64 71 81 87 86 88
76 61 58 61 60 50 59 51 54 57 69 71 70 80 64 50 44 36 31 23 20 19 19 20 20 20 20 21 21 21 23 26 30 37 43 49 57 59 57 57 68 68 79 85
56 48 52 56 49 49 54 55 66 72 76 92 70 73 61 40 35 24 22 20 16 16 16 18 21 21 21 21 22 22 24 24 27 36 42 48 58 58 60 60 65 70 74 84
67 60 50 49 63 54 57 67 85 82 96 82 64 78 69 40 33 28 30 23 19 18 16 17 18 18 18 24 26 25 25 25 25 29 39 47 55 56 54 54 58 61 63 84
87 83 64 53 61 68 68 64 81 65 96 86 62 76 51 36 30 25 23 22 21 19 18 17 17 19 26 29 27 28 27 26 25 27 28 44 47 50 58 55 51 56 56 69
88 77 58 55 53 56 72 86 62 82 78 94 76 60 38 31 25 31 32 28 28 27 24 20 20 31 37 38 36 32 29 29 29 29 34 38 49 54 51 54 56 62 66 85
65 86 62 60 51 54 60 61 86 92 91 90 75 68 49 35 29 36 34 30 28 30 29 29 31 32 31 29 28 25 29 28 26 28 33 39 44 57 59 61 61 66 89 99
54 72 72 66 73 77 75 86 80 79 90 98 95 72 45 34 31 38 37 36 39 42 39 37 30 29 32 28 27 25 24 21 19 23 35 44 49 61 62 71 75 83 90 98
51 78 93 81 60 59 65 74 76 90 79 95 92 79 40 40 37 39 39 43 56 57 46 40 32 32 36 34 30 29 30 29 30 33 38 42 55 73 68 72 85 92 90 99
52 76 92 82 74 67 74 71 69 73 85 94 92 71 40 43 38 39 47 58 67 66 60 51 49 44 43 42 39 36 34 32 33 49 48 59 65 75 76 83 99 95 90 96
49 79 78 86 76 77 87 77 72 77 98 84 79 62 48 46 46 50 56 64 66 66 58 57 56 60 60 57 50 45 41 40 47 57 59 64 70 74 85 94 86 90 89 96
63 87 91 84 78 80 79 78 77 89 74 90 65 68 60 56 56 60 66 69 70 69 70 68 64 61 63 64 65 66 76 79 77 84 67 83 96 96 96 92 90 90 91 91
66 90 89 93 83 88 92 81 78 73 70 69 67 71 54 57 66 70 87 90 90 89 83 78 77 82 83 78 84 98 92 91 91 100 96 99 98 95 92 90 89 88 92 79
77 94 89 94 72 85 93 84 77 76 76 76 90 71 58 72 72 89 89 74 74 85 85 81 83 86 92 98 100 100 99 94 99 96 88 88 92 90 86 87 91 85 82 83
87 90 95 98 87 92 60 53 61 68 70 77 80 71 65 80 82 89 76 80 82 78 80 84 86 92 97 98 99 99 100 99 99 99 99 97 87 82 84 79 76 84 90 91
71 85 98 98 98 73 58 65 67 77 75 66 77 64 74 75 80 90 86 82 86 84 84 88 94 97 97 98 99 95 98 99 99 95 86 82 79 73 78 88 96 98 95 96
74 75 95 95 99 90 56 57 68 68 91 66 62 68 77 74 89 88 94 78 78 86 83 85 85 88 86 91 96 99 100 99 89 83 81 85 91 95 99 99 99 99 100 100
95 96 98 97 96 85 59 54 67 74 60 56 58 61 71 70 79 98 93 77 80 90 87 80 81 87 88 96 100 100 98 99 100 100 100 100 100 100 100 99 96 76 61 49
88 96 99 97 98 93 51 72 73 57 55 57 59 63 70 73 82 96 92 93 92 99 94 94 98 99 100 100 100 100 100 100 99 100 100 100 98 87 63 57 59 53 54 39
89 74 83 84 78 50 48 52 50 55 58 59 62 66 71 72 79 91 92 95 93 96 94 99 100 99 99 99 100 99 99 100 95 77 64 54 53 56 63 86 74 42 36 30
67 58 71 70 59 57 51 48 53 53 54 56 61 66 74 71 75 78 85 77 86 93 94 96 100 100 98 99 99 94 95 89 67 55 54 59 74 81 54 38 38 32 22 17
79 71 68 74 71 59 58 54 53 54 56 64 66 74 75 77 76 70 65 59 61 66 87 90 91 84 78 74 58 56 59 67 73 74 79 70 51 39 40 38 28 19 18 20
73 81 84 78 60 60 56 53 54 56 57 63 72 76 82 80 76 70 64 55 53 54 53 53 52 51 48 48 65 66 63 59 67 66 54 41 38 41 38 29 20 20 19 19

GFSCGP_850_rhum_024.txt.gz
RH
75 93 89 75 75 64 67 72 72 64 52 53 59 56 48 39 38 37 33 30 29 31 30 31 31 29 29 29 32 30 28 34 35 34 35 53 67 64 69 71 78 82 92 88
97 94 79 72 67 68 69 77 78 67 51 49 57 58 47 40 40 34 32 30 29 29 28 27 25 24 24 25 28 31 32 31 33 34 33 38 47 58 58 66 64 64 78 86
82 85 79 70 74 76 74 77 74 70 57 52 63 55 45 35 34 32 29 29 28 28 26 26 26 24 21 21 20 24 28 29 31 34 33 36 55 63 63 68 67 62 65 88
84 76 86 90 87 68 76 57 57 58 63 78 60 75 57 45 47 38 29 26 27 26 23 19 18 16 18 23 25 21 22 26 26 30 33 35 36 43 48 54 58 60 59 66
92 89 88 81 79 58 65 54 59 63 72 66 64 76 57 43 35 28 31 28 24 22 21 20 19 19 22 22 22 23 22 24 25 24 25 25 29 33 50 55 61 63 62 60
72 57 58 60 60 53 59 60 67 74 74 84 64 70 50 37 34 34 33 28 33 32 30 28 25 22 19 19 21 20 20 20 22 23 24 24 25 26 33 48 52 58 64 63
71 65 54 54 65 56 59 66 84 66 84 74 70 76 56 46 44 36 40 33 34 33 32 32 33 33 30 28 21 26 23 22 22 23 23 24 25 28 34 38 47 54 60 66
92 92 61 53 60 69 65 60 77 50 74 74 71 80 46 40 34 32 35 34 33 33 34 36 40 38 35 34 38 37 37 37 36 32 30 29 27 29 39 54 53 53 54 56
84 85 60 58 57 56 73 84 63 85 84 88 67 56 36 34 39 37 37 36 41 46 46 49 54 50 44 41 35 36 40 37 34 32 31 32 33 33 36 37 41 51 53 60
66 93 67 61 56 62 62 64 81 89 63 69 60 67 54 35 35 38 44 43 44 50 56 59 62 58 57 57 48 38 35 34 29 28 28 27 28 29 30 32 38 46 52 57
62 74 80 63 71 79 74 86 83 77 86 82 81 52 50 42 36 40 49 43 47 57 65 65 63 60 57 52 53 44 35 38 33 31 32 31 30 30 26 25 28 38 56 74
56 80 97 77 64 63 66 74 75 82 76 94 94 76 46 47 43 42 43 47 57 69 69 74 73 71 65 63 63 61 58 54 50 42 35 33 32 31 29 27 27 33 64 82
61 79 94 85 71 69 74 74 70 74 82 97 88 65 44 45 46 43 45 56 69 73 76 74 72 79 78 74 71 64 59 55 51 49 44 40 37 34 30 30 42 52 75 99
52 74 76 83 72 81 92 82 78 76 96 84 84 71 50 48 45 43 47 71 77 76 79 78 79 85 86 82 79 75 71 70 62 57 54 49 42 40 42 41 71 98 98 100
62 88 88 83 77 79 76 76 84 85 77 82 69 74 56 48 45 45 61 81 75 79 80 81 86 85 87 91 87 87 90 90 91 85 74 72 85 97 98 96 99 100 100 100
68 96 93 93 75 88 97 87 81 82 76 73 69 73 49 47 48 62 78 78 81 82 85 85 92 89 91 99 99 99 92 98 100 100 100 100 98 99 100 100 100 100 100 100
73 92 92 96 77 84 90 87 82 81 77 70 83 60 49 65 62 76 78 83 82 85 89 88 89 95 96 98 98 97 98 99 99 100 100 94 97 98 99 100 100 100 100 100
80 83 91 98 82 86 54 61 64 70 65 71 66 62 52 60 70 78 83 89 83 89 87 86 91 91 92 99 99 97 100 98 99 100 100 100 98 100 100 99 99 99 100 100
67 84 98 97 87 76 58 78 74 71 64 67 67 61 62 62 71 82 87 81 82 91 87 87 94 94 96 98 97 96 100 99 98 97 96 97 97 99 100 100 100 100 100 99
73 79 94 83 81 95 52 64 68 61 75 56 70 72 67 68 85 85 88 84 90 88 87 93 98 99 98 97 99 97 97 99 100 100 100 100 100 100 100 100 100 99 100 100
100 100 92 93 94 83 60 54 66 74 65 52 60 61 65 78 72 78 84 83 81 83 83 90 98 99 99 99 100 98 99 98 100 99 100 100 100 100 99 98 99 99 100 99
90 93 96 89 99 92 61 75 70 60 57 57 60 60 62 65 68 82 84 84 81 79 83 83 96 99 98 99 100 99 98 99 100 100 99 99 100 99 100 99 99 99 97 69
92 82 90 87 79 52 55 62 53 50 53 57 58 58 59 68 69 82 86 83 84 80 82 88 88 97 99 98 100 99 99 100 98 99 95 85 74 66 61 62 55 42 36 33
75 64 73 79 67 70 57 54 60 60 57 57 58 59 60 67 70 78 86 86 85 87 87 87 89 88 92 99 99 95 95 91 73 57 58 67 76 60 47 39 37 32 26 20
79 77 80 75 69 63 58 62 59 60 58 58 58 58 61 69 72 75 83 83 86 88 91 90 92 95 95 97 84 63 55 54 63 72 73 58 41 38 36 32 25 20 20 20
78 79 86 84 68 77 73 64 64 65 63 61 60 58 63 72 75 75 80 71 74 87 89 85 84 83 73 70 64 63 66 71 75 64 49 38 39 37 30 24 22 21 21 21

GFSCGP_850_rhum_027.txt.gz
RH
82 90 85 67 60 65 68 72 72 66 55 55 60 59 49 43 42 40 36 33 31 32 31 31 31 30 31 32 30 30 30 30 34 36 43 45 40 46 61 59 61 62 66 78
93 89 70 64 67 64 67 73 75 65 52 50 56 54 44 40 43 40 38 37 34 31 28 26 26 25 24 26 25 25 28 32 32 33 36 36 37 37 40 51 54 60 61 62
83 87 69 67 75 75 76 76 77 69 56 53 59 54 44 36 36 30 29 28 28 29 26 21 20 22 23 23 22 22 23 28 32 32 34 37 40 46 43 42 46 52 60 61
91 81 74 73 78 71 82 63 63 59 64 72 59 64 48 44 33 30 31 30 26 24 26 26 24 21 22 24 24 24 24 24 26 28 30 35 36 41 39 37 39 45 58 65
97 88 93 83 82 61 69 56 61 63 69 62 61 60 41 37 33 31 35 41 40 38 38 37 35 33 28 20 21 22 24 25 25 28 27 28 30 31 32 36 43 52 53 61
76 94 82 87 77 71 58 58 65 69 68 72 61 60 37 34 35 38 36 38 38 39 37 36 35 33 31 29 25 23 23 24 24 26 27 28 27 26 27 30 31 33 44 54
74 68 72 66 67 55 57 70 84 65 78 69 67 72 45 40 41 38 36 39 44 46 45 46 45 41 37 33 31 31 26 28 28 26 26 26 26 27 30 31 40 46 42 45
91 96 69 56 62 69 66 64 78 55 58 57 71 74 39 42 39 35 37 43 47 50 54 58 57 56 53 48 41 38 33 37 38 35 34 34 31 33 34 30 34 46 55 66
84 91 62 63 58 58 70 80 58 84 84 78 56 50 35 36 39 38 39 41 47 52 62 61 58 60 62 56 50 49 44 36 38 36 33 32 32 35 37 40 45 56 58 58
67 95 70 63 57 61 61 63 77 83 68 55 49 56 39 36 36 40 42 45 50 58 65 62 63 65 66 66 57 53 51 45 39 40 35 33 31 30 28 28 29 38 49 56
64 74 82 64 70 77 72 81 78 73 77 65 55 40 44 42 36 40 42 43 50 68 68 69 70 70 76 77 71 67 63 58 52 56 54 44 38 36 33 29 26 25 26 31
60 80 92 77 66 63 65 73 67 76 75 88 82 54 41 45 45 42 42 45 63 71 70 72 73 78 78 81 79 75 70 65 63 60 56 52 48 41 36 33 30 28 24 24
61 77 94 84 74 70 74 75 67 71 79 96 73 48 45 48 44 41 45 51 71 72 75 73 75 80 86 85 84 79 76 71 66 60 56 52 49 47 43 38 35 32 36 37
53 72 72 71 68 80 89 82 71 74 87 79 76 61 46 45 49 46 45 59 73 76 79 82 82 88 90 91 90 82 85 85 79 74 72 67 60 50 49 48 47 57 70 90
60 87 86 76 68 81 78 79 82 84 74 78 60 70 52 51 50 48 51 72 76 81 79 83 85 90 95 97 95 90 88 89 87 81 87 89 85 71 69 91 95 98 98 99
68 95 92 87 76 87 95 84 81 79 72 74 71 71 47 47 50 58 76 78 83 82 85 86 89 91 98 94 92 93 93 87 87 99 99 99 100 98 99 99 100 100 99 100
71 93 89 88 76 82 93 84 83 78 78 67 81 60 50 57 59 78 79 84 84 84 90 88 92 95 96 95 93 92 95 94 93 100 99 99 100 99 100 100 100 100 100 100
78 83 90 93 78 86 51 62 67 71 67 70 65 61 55 55 66 78 82 80 81 90 86 91 96 98 100 100 100 100 99 96 96 94 96 99 100 98 99 100 100 100 100 100
62 80 98 95 84 69 62 76 76 75 66 63 64 56 57 61 69 80 84 79 86 88 91 97 100 97 100 100 99 99 100 99 100 97 98 100 100 100 100 100 100 100 100 99
79 74 81 84 87 86 53 67 65 64 81 60 63 64 69 68 80 80 83 80 84 82 89 98 98 90 89 97 96 96 98 97 99 100 99 99 99 100 100 100 100 100 100 100
100 100 97 91 88 81 58 57 66 76 68 52 61 63 67 76 69 71 81 79 78 80 84 90 88 85 91 99 97 94 95 93 96 98 99 99 100 98 99 99 99 99 99 99
82 95 83 76 88 94 59 71 70 59 54 55 59 60 61 63 70 69 81 79 78 83 79 82 82 80 90 100 99 100 99 99 99 99 99 100 100 100 100 99 99 99 96 80
94 80 88 79 77 54 60 59 53 55 58 60 58 59 61 63 70 71 82 82 78 83 84 82 79 82 92 95 98 99 99 99 90 82 77 74 70 68 62 50 38 34 31 26
79 70 81 80 67 72 57 57 61 61 62 59 58 60 62 62 68 73 83 83 82 83 84 83 82 84 89 91 86 81 74 60 59 69 74 63 44 39 36 34 30 23 20 20
81 79 81 84 73 64 66 65 64 65 63 63 64 62 62 64 68 73 79 84 84 85 88 87 90 89 88 80 64 59 60 64 74 69 52 38 36 36 31 25 20 20 20 20
82 84 92 92 69 70 66 63 72 72 71 62 67 64 62 63 71 74 78 83 82 85 86 84 88 86 78 69 63 68 71 74 69 51 37 36 36 31 26 23 22 22 22 21

GFSCGP_850_rhum_030.txt.gz
RH
76 80 75 48 43 42 42 43 41 43 48 46 41 41 38 36 34 33 31 28 27 29 30 34 31 31 32 31 32 30 29 29 29 49 42 47 65 58 61 54 51 61 61 64
92 84 50 41 48 49 48 48 48 51 44 43 41 42 34 31 31 33 32 31 30 30 30 30 25 25 25 27 29 29 30 30 30 30 46 51 46 50 58 46 48 54 56 54
93 67 45 52 52 54 52 51 59 47 48 43 44 35 36 32 30 27 28 28 28 30 25 28 30 25 24 24 24 25 26 25 26 29 32 58 77 72 52 42 39 38 50 56
93 80 53 49 58 47 57 53 56 56 54 46 44 31 35 28 26 27 29 30 32 36 39 42 44 40 30 25 25 24 24 22 22 25 31 58 82 66 39 34 36 36 39 46
97 91 66 63 55 49 53 51 51 52 54 53 46 44 30 25 26 31 34 38 41 43 45 46 41 34 32 30 26 23 24 23 24 25 26 38 83 84 84 88 54 40 38 41
93 91 86 86 69 51 46 48 49 50 52 70 47 46 25 24 25 29 32 35 43 46 49 52 50 41 39 33 30 27 23 25 28 27 27 27 40 72 85 85 91 69 45 40
97 98 85 90 87 62 52 58 78 76 85 57 51 50 27 26 28 27 32 40 44 47 52 56 58 57 48 43 40 34 31 28 29 31 29 27 28 56 91 91 95 87 83 42
90 95 97 89 74 89 58 57 62 56 47 40 54 44 28 30 29 31 35 41 47 51 58 62 64 65 62 55 54 48 44 39 34 36 38 38 38 33 38 35 37 61 98 60
78 91 63 58 53 53 62 74 45 65 61 55 32 33 28 32 32 31 32 39 49 56 63 65 69 70 68 63 58 59 51 48 46 40 38 36 35 36 83 94 67 40 39 50
60 92 62 57 53 51 53 47 66 74 68 47 28 29 28 34 31 29 34 41 47 60 64 66 68 73 78 77 71 70 64 58 53 46 42 42 36 34 34 36 32 30 29 37
52 60 76 59 61 58 59 61 58 50 55 45 27 25 23 27 30 33 33 40 47 66 67 68 72 82 79 73 73 76 73 69 65 62 55 49 51 45 40 37 37 35 34 31
53 65 80 69 58 54 53 53 44 49 69 62 57 31 27 28 29 33 36 40 51 69 70 71 77 84 90 75 74 79 75 74 70 64 61 59 57 53 48 45 40 36 34 36
49 66 88 85 66 60 65 58 52 54 62 77 49 33 34 34 33 35 41 43 58 71 73 73 76 84 96 84 82 82 83 81 79 75 69 64 63 60 55 48 45 42 38 37
46 58 67 54 70 63 80 65 57 58 69 54 44 37 35 32 36 40 44 49 66 71 77 77 79 87 88 89 88 89 86 85 85 77 76 74 80 81 75 67 59 49 48 53
50 91 80 58 60 70 66 65 65 77 55 60 41 46 33 34 39 42 51 69 69 74 78 79 83 92 99 99 100 99 90 86 82 84 96 98 100 98 90 82 55 86 94 94
56 92 85 81 69 72 80 64 61 62 58 55 49 50 33 36 42 51 64 70 75 76 82 83 88 97 100 100 100 90 89 86 87 100 98 98 99 100 98 92 98 100 99 99
59 87 83 76 64 66 74 65 63 62 59 55 62 44 37 40 43 60 68 78 75 82 84 91 97 100 99 100 97 99 96 94 95 98 98 96 100 98 100 99 100 100 100 100
61 76 83 81 69 77 52 51 51 57 51 53 48 45 42 42 50 74 76 75 81 86 91 99 100 99 99 95 96 99 98 96 95 96 98 98 100 100 98 100 99 99 100 100
50 61 85 82 72 53 49 63 60 62 59 48 50 43 42 49 65 71 82 81 84 84 89 96 87 85 85 88 94 99 98 100 99 99 99 99 99 99 100 99 99 99 100 100
61 54 60 70 78 59 46 60 61 54 68 53 49 49 50 62 64 58 80 81 78 80 87 89 85 86 83 87 88 89 92 99 100 100 99 100 99 99 100 100 99 99 99 99
78 80 76 73 68 50 38 54 64 67 60 52 59 59 62 61 56 75 77 78 73 78 82 84 83 84 84 88 93 90 92 97 97 96 95 94 94 92 94 96 99 100 98 99
66 75 82 74 78 79 50 60 54 50 55 55 61 62 65 65 69 70 77 77 73 76 80 78 80 86 88 92 97 92 94 99 98 96 96 99 99 96 98 96 99 99 92 70
73 57 56 54 52 41 55 54 58 59 63 64 62 59 60 63 67 71 74 80 77 77 80 80 80 84 88 90 90 77 79 85 80 75 72 70 68 58 44 38 34 29 24 20
65 61 61 64 47 51 53 60 60 61 62 62 62 62 62 65 65 74 77 82 79 80 81 81 81 83 85 84 76 68 64 62 70 65 44 39 36 34 31 25 20 19 20 20
61 65 60 60 57 61 63 63 65 67 65 61 62 63 65 64 65 68 75 82 81 78 82 84 83 82 84 74 68 63 65 70 68 48 33 33 32 29 23 20 20 20 20 20
66 65 66 59 55 52 56 68 69 72 71 70 68 61 63 64 64 68 72 79 82 82 84 85 86 89 81 68 63 66 70 66 59 40 32 33 30 26 22 22 21 21 22 22

GFSCGP_850_rhum_033.txt.gz
RH
82 76 68 44 32 25 23 32 27 24 38 41 39 32 26 28 29 27 25 24 22 21 22 26 32 33 34 34 35 36 38 38 40 45 61 69 44 33 41 67 87 99 98 100
85 79 43 32 30 36 36 35 36 32 36 40 28 34 29 28 27 25 24 23 21 21 24 27 26 29 30 30 32 35 37 38 38 37 42 56 69 37 31 38 55 64 75 81
73 61 41 42 38 43 36 37 35 43 43 37 38 36 32 26 29 28 27 26 25 25 25 25 30 36 39 34 27 28 34 37 37 37 40 45 65 82 86 62 53 51 62 77
76 60 50 50 48 36 42 33 43 50 48 35 34 20 30 29 26 24 24 22 24 28 32 37 39 42 46 37 26 27 27 26 26 26 28 34 50 72 87 88 89 68 54 49
96 82 56 51 42 34 46 43 46 50 52 50 42 38 26 24 27 28 29 33 34 36 38 39 45 49 49 46 30 27 26 32 36 25 25 27 38 54 75 84 85 86 87 61
94 93 78 71 44 36 43 46 47 47 49 71 42 35 28 24 22 27 28 31 35 36 41 44 49 52 53 53 37 32 27 28 30 31 30 30 35 56 68 74 79 86 93 97
99 97 92 82 61 48 46 51 75 77 85 63 41 46 26 21 20 23 26 32 36 39 43 50 54 58 61 56 47 44 43 40 38 38 41 48 42 44 64 71 78 84 88 99
100 98 97 88 78 69 57 50 63 63 58 48 42 45 28 21 23 24 32 35 40 44 50 56 60 62 63 67 65 57 53 51 54 52 46 50 51 61 52 54 78 91 82 88
94 97 89 90 70 57 70 72 42 55 38 43 33 28 27 27 26 25 28 32 41 48 55 57 59 61 65 71 74 76 75 71 71 65 56 57 58 62 65 83 86 91 96 97
55 87 89 87 74 68 66 47 71 73 75 40 30 22 27 32 30 27 27 34 41 49 57 58 60 65 72 78 81 82 83 80 68 65 62 60 65 66 54 47 72 90 85 79
45 54 71 70 68 64 59 65 53 51 50 51 25 22 22 26 28 31 32 34 40 51 60 61 63 70 76 82 82 83 88 83 79 68 64 63 67 66 60 56 58 73 87 66
47 58 79 66 52 47 46 45 42 51 63 46 48 35 20 26 28 30 34 38 41 57 63 64 66 70 79 88 84 83 86 88 85 76 71 72 76 86 80 93 72 62 50 47
44 64 88 78 60 53 59 50 46 45 54 69 47 36 24 27 29 32 38 40 44 61 65 68 66 71 82 95 91 89 91 94 84 86 88 87 86 82 83 90 85 61 55 50
41 49 68 58 72 52 67 54 51 55 68 45 36 34 32 30 30 37 40 45 56 61 68 70 71 74 86 98 100 91 84 90 82 92 85 91 93 90 91 88 78 73 69 67
44 91 77 49 54 62 60 54 55 71 54 50 32 30 28 28 34 37 47 58 63 65 69 72 74 80 92 100 100 89 87 96 98 99 98 98 98 99 100 100 94 89 94 94
48 86 77 83 58 61 69 56 51 53 52 44 39 40 27 28 37 44 53 63 64 68 72 76 81 93 100 99 98 93 99 99 100 99 94 96 98 95 97 99 100 99 100 93
53 82 87 72 57 59 69 57 54 51 48 44 50 37 33 35 37 48 58 67 68 72 77 84 94 98 100 100 100 99 100 100 97 92 92 92 94 93 99 100 100 100 97 98
53 70 77 81 68 81 52 44 41 46 45 44 39 35 34 37 44 61 68 65 72 76 82 92 97 98 98 97 100 98 97 93 92 91 94 93 96 98 98 99 99 99 100 100
40 50 71 78 63 45 35 42 52 53 52 42 44 39 37 38 51 61 71 70 74 79 89 86 82 84 76 82 97 96 99 97 99 99 99 99 99 99 99 98 96 98 98 98
47 44 58 61 68 57 46 49 46 44 62 42 40 40 43 50 62 53 73 72 73 82 92 86 84 74 76 80 84 89 98 99 90 93 100 98 99 99 97 99 98 98 95 94
67 60 70 62 62 47 33 54 53 69 63 50 48 50 53 56 56 72 74 77 76 87 86 81 80 75 78 80 81 86 89 89 90 89 88 88 90 91 94 95 96 95 93 94
59 64 64 57 66 72 39 56 57 50 51 52 56 58 60 59 66 73 77 77 77 86 84 79 78 80 76 78 80 82 86 91 92 93 92 92 93 94 96 94 94 84 61 35
58 45 48 47 48 36 42 40 53 57 55 58 62 63 62 64 67 75 80 80 77 86 83 78 78 82 78 73 71 70 73 78 74 70 66 62 55 44 37 32 28 22 22 23
47 42 54 49 40 40 42 53 56 61 62 64 65 62 62 65 67 71 80 75 81 84 83 82 79 82 83 73 68 65 64 69 63 47 40 36 33 29 25 21 20 21 21 20
45 51 56 50 43 52 49 46 48 64 65 64 64 63 62 67 66 68 76 79 80 80 80 79 80 81 84 77 68 64 63 66 58 39 33 32 30 24 20 19 20 20 19 19
51 51 57 52 39 40 41 53 62 69 72 66 64 63 66 61 65 69 71 81 84 82 79 81 82 80 81 80 69 65 65 62 54 38 31 30 27 23 21 21 20 19 19 20

GFSCGP_850_rhum_039.txt.gz
RH
90 97 87 67 69 58 58 56 54 50 42 51 54 51 41 36 29 29 27 26 25 23 22 22 22 24 24 24 25 32 35 36 43 54 55 62 69 64 64 72 70 72 70 81
97 96 70 59 60 62 51 59 54 43 43 48 53 53 44 39 34 29 28 28 27 25 24 25 26 26 26 28 28 30 32 32 34 36 38 43 50 60 64 61 68 68 72 78
94 76 56 58 58 57 52 48 51 51 46 41 41 46 42 38 31 30 29 30 28 26 26 26 27 27 27 27 26 26 27 28 29 30 34 37 41 44 46 49 53 52 54 58
74 64 59 57 58 48 56 39 44 56 57 62 40 56 37 38 36 35 30 27 27 27 28 36 40 37 34 27 26 25 26 27 29 33 37 38 39 41 42 42 42 44 48 61
95 84 72 63 53 43 49 48 55 54 62 59 50 64 48 39 43 36 29 26 24 28 32 38 40 42 45 42 37 32 30 30 30 30 31 31 30 29 29 32 36 44 62 77
91 82 93 81 62 47 47 56 58 60 66 87 63 63 52 47 39 37 39 36 36 38 40 43 45 52 52 52 46 44 41 40 39 37 36 34 32 30 32 30 31 40 53 67
95 97 82 82 73 57 55 68 95 93 94 90 53 64 48 34 34 40 42 36 35 37 44 50 51 53 54 55 52 51 50 50 48 48 47 47 48 50 54 48 42 36 59 74
95 98 95 85 74 78 73 63 84 87 96 84 49 70 49 31 29 33 32 35 37 43 51 51 55 57 57 56 54 54 55 54 54 52 53 57 57 54 54 54 53 59 52 53
99 98 92 85 88 78 75 77 50 68 56 83 63 45 33 31 41 38 39 39 42 51 53 56 58 57 58 60 61 61 62 63 59 55 55 59 61 63 64 59 56 59 89 93
77 98 96 89 83 76 74 55 82 91 89 70 62 49 50 41 42 41 39 38 43 46 55 58 58 59 62 64 65 67 67 66 63 64 69 67 64 64 66 64 60 60 62 86
59 81 99 96 98 97 86 84 69 71 83 87 57 48 35 36 34 38 36 30 34 52 58 59 60 62 64 66 68 68 68 69 70 70 69 70 70 71 73 77 76 73 77 76
53 82 99 99 81 71 70 76 65 87 77 74 81 60 31 36 34 29 29 30 41 54 59 62 63 65 67 70 72 74 75 76 77 73 73 75 76 76 77 84 86 90 87 84
55 81 97 99 90 78 90 80 75 67 74 82 78 55 38 39 39 32 36 37 48 57 61 63 67 68 71 74 77 78 81 84 82 77 77 77 78 78 78 80 84 88 79 76
46 68 76 82 72 78 82 73 74 92 96 71 69 47 44 41 40 38 41 50 58 61 64 66 69 71 73 76 80 84 90 92 86 85 87 90 96 97 99 98 100 98 91 87
61 81 69 58 64 69 68 68 69 78 65 70 50 47 41 41 40 49 54 60 63 64 66 67 70 72 75 80 85 98 100 99 100 99 94 92 93 96 94 97 98 99 98 91
66 91 80 76 59 64 71 69 68 64 59 63 61 61 34 33 36 59 60 60 63 64 67 69 72 74 75 82 98 100 100 99 99 96 85 92 89 85 86 87 86 92 90 91
72 87 91 88 62 64 76 72 66 64 58 56 67 51 37 49 53 62 61 61 63 66 69 70 70 68 71 83 100 99 98 99 100 99 92 83 82 82 81 84 88 80 83 84
79 80 91 95 80 96 49 50 55 56 55 57 51 46 42 44 46 49 54 59 63 66 68 69 66 64 66 82 98 95 98 99 98 97 94 91 91 90 90 94 93 94 93 89
63 78 92 93 96 64 54 55 55 65 62 51 52 47 42 45 53 61 58 61 62 63 65 67 68 63 63 71 90 99 100 99 98 100 100 92 93 89 89 92 91 87 83 81
57 56 75 87 90 86 59 47 44 49 73 51 46 47 47 53 68 66 61 63 66 65 67 65 65 63 63 64 77 85 82 94 96 92 88 88 88 89 85 81 81 83 84 82
74 75 87 81 79 66 47 48 49 81 70 49 46 44 44 62 52 56 64 66 66 65 65 67 66 64 62 64 70 77 78 76 76 73 74 77 78 77 80 82 82 66 32 20
76 85 89 85 84 86 59 60 72 61 57 48 45 42 43 49 58 60 65 69 67 63 66 68 66 63 62 66 73 74 71 72 75 75 74 76 78 76 62 40 22 18 18 20
74 69 74 71 70 46 57 52 53 52 54 58 54 57 55 60 62 63 65 69 69 67 66 68 70 67 64 64 66 64 57 52 50 50 48 42 35 31 25 20 18 18 18 19
52 50 61 58 49 48 42 48 53 53 56 56 58 57 57 57 59 60 63 66 70 72 72 69 71 71 69 65 65 60 58 48 38 31 29 27 25 24 21 19 18 19 18 16
60 58 62 65 56 51 46 52 53 56 58 60 62 60 60 60 62 63 64 66 66 68 74 74 71 72 72 73 66 61 60 59 39 30 28 28 25 22 20 19 19 19 18 17
60 66 70 74 50 50 46 43 52 54 59 61 61 61 60 59 60 63 65 66 67 69 72 78 77 76 77 78 74 66 64 59 48 36 27 27 26 22 20 21 22 21 20 18

GFSCGP_850_rhum_042.txt.gz
RH
96 86 86 78 72 60 64 57 64 54 46 49 50 55 46 39 34 35 33 32 30 27 24 24 24 24 24 23 24 38 38 38 39 54 66 68 71 70 70 77 76 74 74 80
96 86 69 66 66 63 61 62 60 47 44 51 55 56 48 44 42 34 28 28 27 26 26 24 25 26 25 25 26 30 34 35 36 39 46 53 58 60 74 71 75 78 82 83
88 74 68 64 71 74 60 67 56 51 48 43 46 51 50 44 41 37 33 27 25 28 27 26 27 28 28 29 29 29 29 30 32 34 36 39 42 44 50 54 56 61 59 67
86 66 71 69 68 60 69 45 43 55 59 72 42 68 42 41 43 41 34 32 30 29 27 26 27 28 30 28 27 26 25 25 28 30 32 34 36 39 40 42 43 43 42 43
95 81 72 72 64 46 54 45 59 56 63 60 53 58 47 41 50 44 42 32 29 28 27 31 33 33 33 30 28 25 25 27 28 30 29 30 31 31 31 33 35 37 37 37
93 89 84 70 60 47 54 59 64 70 68 82 64 63 62 48 45 41 36 29 26 30 40 43 43 43 39 41 40 33 33 34 32 31 30 28 28 27 28 29 31 30 28 29
97 96 83 84 66 57 57 65 92 90 92 82 58 71 49 40 36 39 45 38 35 39 45 47 48 51 48 49 46 44 44 44 44 42 41 43 42 41 39 37 36 37 34 31
98 99 93 86 76 72 64 59 85 83 98 81 54 71 54 36 31 31 35 35 38 42 46 46 50 51 51 52 51 51 51 50 50 51 51 51 51 53 55 52 52 51 48 49
96 98 88 84 89 78 73 81 56 72 70 86 67 56 38 38 42 42 40 38 38 42 51 51 53 54 53 53 55 57 57 57 57 54 52 55 58 58 61 63 62 58 58 63
83 98 96 86 85 74 72 59 80 91 85 74 62 63 52 43 49 46 47 45 42 48 54 56 57 57 56 57 59 61 62 60 60 59 60 60 64 66 67 67 64 64 64 63
74 80 99 92 97 88 86 95 81 79 79 87 72 58 40 41 45 46 45 44 49 53 53 57 59 60 61 62 65 68 69 69 68 66 66 66 69 72 73 74 76 79 78 79
63 91 100 98 84 72 74 85 66 91 90 84 83 62 36 37 41 41 39 38 35 45 56 59 61 63 64 66 69 72 73 74 75 72 70 69 69 72 75 78 84 89 85 82
60 88 98 98 90 84 96 88 72 68 78 82 78 53 40 38 36 34 33 32 37 54 62 64 65 66 68 71 73 74 76 77 80 79 75 75 78 82 83 81 80 85 81 75
50 75 77 81 70 84 98 89 82 80 92 72 81 51 42 42 40 37 32 39 49 60 64 65 66 69 71 73 74 77 81 86 89 86 84 87 90 93 98 99 98 100 94 91
56 80 72 62 68 71 73 77 80 94 69 83 56 60 44 40 42 39 38 51 62 64 66 66 67 67 68 70 76 80 96 100 99 98 95 93 94 95 93 96 97 99 99 96
70 92 75 75 61 65 70 71 75 78 78 78 61 67 44 34 37 46 52 58 62 63 66 67 67 67 67 68 74 93 100 99 98 97 91 94 91 87 88 85 82 83 85 80
74 88 88 83 68 66 76 70 70 70 64 67 72 48 41 47 43 57 59 60 60 62 64 64 66 65 63 68 78 96 100 100 100 98 91 84 84 81 82 79 77 74 80 83
80 80 88 95 75 89 53 49 51 59 60 56 54 48 41 43 42 40 47 52 58 61 63 64 64 62 64 72 84 88 98 99 99 94 87 84 85 86 87 86 87 90 90 85
66 82 93 94 96 69 56 58 63 67 60 52 56 52 43 43 52 59 55 54 54 58 61 64 63 61 64 72 80 86 98 99 99 100 93 87 90 88 91 98 93 85 80 76
60 60 80 92 94 89 52 50 45 50 74 51 52 54 50 61 71 61 51 57 62 63 61 61 60 60 64 67 73 72 76 91 99 99 100 93 92 97 94 85 81 79 76 49
77 75 88 88 83 74 50 48 50 71 61 59 50 49 48 63 49 40 47 58 61 62 61 64 62 62 64 64 64 66 66 64 75 77 80 93 92 84 79 78 76 39 18 16
74 84 90 85 94 88 51 58 69 59 58 56 52 49 46 46 44 47 57 61 63 60 61 63 63 62 63 64 65 60 57 64 71 76 80 80 79 80 62 37 18 17 17 16
73 67 78 77 74 46 48 53 48 54 55 56 53 48 43 46 52 56 61 65 67 65 63 64 65 62 62 62 61 56 47 54 67 72 70 58 57 39 22 18 17 17 17 17
57 56 64 62 51 54 42 52 51 52 52 53 56 56 55 54 58 58 63 67 69 70 69 68 69 68 65 64 62 59 48 41 39 44 39 32 28 23 19 17 18 18 17 17
65 60 65 68 58 54 49 44 44 52 55 56 59 58 57 56 57 58 60 62 64 71 76 74 72 71 70 69 65 61 52 47 36 32 27 26 24 22 19 17 18 18 18 17
62 69 75 74 51 50 44 42 44 54 53 58 61 61 62 62 62 63 63 63 65 66 69 75 76 76 74 74 72 67 63 55 51 37 27 26 25 23 20 19 19 20 20 19